Miscellaneous Local Product
Issued by NWS Hastings, NE

Home | Current Version | Previous Version | Graphics & Text | Print | Product List | Glossary On
Versions: 1 2 3 4 5 6 7 8 9 10 11 12 13 14 15 16 17 18 19 20 21 22 23 24 25 26 27 28 29 30 31 32 33 34 35 36 37 38 39 40 41 42 43 44 45 46 47 48 49 50
431
AXUS43 KGID 181002
MISGRI

GID CWA HOURLY WEATHER ROUNDUP
NATIONAL WEATHER SERVICE HASTINGS NE
400 AM CST SAT NOV 18 2017

NOTE: "FAIR" INDICATES FEW OR NO CLOUDS BELOW 12,000 FEET WITH NO
SIGNIFICANT WEATHER AND/OR OBSTRUCTIONS TO VISIBILITY.

...SOUTH CENTRAL NEBRASKA...

CITY           SKY/WX    TMP DP  RH WIND       PRES   REMARKS
GRAND ISLAND   CLOUDY    39  37  92 NW20      29.80R WCI  29
KEARNEY        LGT RAIN  37  35  92 N20       29.82R WCI  27
HASTINGS       LGT RAIN  38  35  89 N24G35    29.80R WCI  27
ORD            CLOUDY    38  35  89 NW13      29.83R WCI  30
YORK           LGT RAIN  39  39 100 N16       29.74S WCI  30
AURORA         LGT RAIN  38  37  94 N18G25    29.79R WCI  28
LEXINGTON      LGT RAIN  38  34  87 N20G29    29.86R WCI  28
HOLDREGE       DRIZZLE   37  37  97 N15G24    29.83R WCI  28
HEBRON         LGT RAIN  42  39  91 N16G24    29.74R

...NEBRASKA PANHANDLE...

CITY           SKY/WX    TMP DP  RH WIND       PRES   REMARKS
CHADRON        CLEAR     33  27  78 W15       30.03R WCI  23
ALLIANCE       CLEAR     32  27  81 NW16      30.00R WCI  21
SCOTTSBLUFF    CLEAR     33  21  61 NW14G23   30.07R WCI  23
SIDNEY         CLOUDY    33  25  72 NW20      30.01R WCI  21

...WESTERN AND NORTH CENTRAL NEBRASKA...

CITY           SKY/WX    TMP DP  RH WIND       PRES   REMARKS
VALENTINE      CLOUDY    37  35  92 W8        29.92R WCI  31
AINSWORTH      CLOUDY    36  36  99 NW13      29.90R WCI  28
ONEILL         CLOUDY    37  33  87 NW12G17   29.83S WCI  29
BROKEN BOW     CLOUDY    37  33  85 N17       29.86R WCI  27
IMPERIAL       CLOUDY    39  36  89 NW18      29.95R WCI  30
NORTH PLATTE   CLOUDY    38  35  89 NW14      29.91R WCI  30
MCCOOK         LGT RAIN  39  37  92 NW15      29.89R WCI  31

...EASTERN NEBRASKA...

CITY           SKY/WX    TMP DP  RH WIND       PRES   REMARKS
NORFOLK        CLOUDY    37  33  85 N16       29.77R WCI  28
SO SIOUX CITY  MOCLDY    36  34  92 NW16      29.76R WCI  26
TEKAMAH        CLOUDY    39  35  86 N17       29.74R WCI  30
COLUMBUS       CLOUDY    39  35  86 NW17G28   29.78R WCI  30
ALBION         CLOUDY    39  33  80 N15       29.80R WCI  30
OMAHA EPPLEY   LGT RAIN  40  36  86 N20G25    29.70R WCI  30
OFFUTT AFB     LGT RAIN  41  38  89 N14G25    29.68R
MILLARD        DRIZZLE   42  39  90 NW9G16    29.71R
LINCOLN        LGT RAIN  41  38  89 N21       29.72R
NEBRASKA CITY  LGT RAIN  42  42 100 N29G35    29.62R
BEATRICE       LGT RAIN  42  40  95 N25G31    29.68F
FALLS CITY     CLOUDY    46  42  86 N18G29    29.58R

...NORTHERN KANSAS...

CITY           SKY/WX    TMP DP  RH WIND       PRES   REMARKS
GOODLAND       CLOUDY    39  34  82 NW29G44   29.91R WCI  27
HILL CITY      LGT RAIN  42  40  92 N23G31    29.84R
NORTON         DRIZZLE   37  34  87 NW14      29.84R WCI  29
PHILLIPSBURG   DRIZZLE   41  39  93 NW18G25   29.82R
SMITH CENTER   DRIZZLE   39  37  93 NW17G28   29.80R WCI  30
HAYS           LGT RAIN  44  40  85 N23G31    29.78R
RUSSELL        CLOUDY    44  42  93 NW23G35   29.75R
CONCORDIA      RAIN      42  41  96 N21G28    29.71R
SALINA         CLOUDY    48  40  73 N26G38    29.67R
TOPEKA         CLOUDY    52  52 100 N21G32    29.50R



USA.gov is the U.S. government's official web portal to all federal, state and local government web resources and services.